Change the Weather History Date:

Sunday, May 26, 2013

  Actual Average (KESN) Record (KESN)
Temperature  
Mean Temperature 60 °F -  
Max Temperature 69 °F 73 °F 91 °F (2011)
Min Temperature 50 °F 54 °F 39 °F (1956)
Degree Days  
Heating Degree Days 6    
Growing Degree Days 10 (Base 50)    
Moisture  
Dew Point 38 °F    
Average Humidity 47    
Maximum Humidity 82    
Minimum Humidity 28    
Precipitation  
Precipitation 0.00 in - - ()
Sea Level Pressure  
Sea Level Pressure 30.16 in    
Wind  
Wind Speed 6 mph (WNW)    
Max Wind Speed 14 mph    
Max Gust Speed 23 mph    
Visibility 10 miles    
Events      
Averages and records for this station are not official NWS values.
T = Trace of Precipitation, MM = Missing Value Source: NWS Daily Summary

Daily Weather History Graph

Daily Weather History Graph

Search for Another Location

Airport or City:

Trip Planner

Search our weather history database for the weather conditions in past years. The results will help you decide how hot, cold, wet, or windy it might be!

Date:

Astronomy

May. 26, 2013 Rise Set
Actual Time 5:44 AM EDT 8:18 PM EDT
Civil Twilight 5:13 AM EDT 8:49 PM EDT
Nautical Twilight 4:35 AM EDT 9:27 PM EDT
Astronomical Twilight 3:52 AM EDT 10:10 PM EDT
Moon 10:04 PM EDT (5/26) 7:10 AM EDT (5/26)
Length of Visible Light 15h 35m
Length of Day
14h 33m
Waning Gibbous, 97% of the Moon is Illuminated
May 26
Waning Gibbous
May 31
Last Quarter
Jun 8
New
Jun 16
First Quarter
Jun 23
Full

Hourly Weather History & Observations

Time (EDT) Temp. Dew Point Humidity Pressure Visibility Wind Dir Wind Speed Gust Speed Precip Events Conditions
12:09 AM 55.4 °F 35.6 °F 47% 30.12 in 10.0 mi WNW 4.6 mph - N/A   Clear
12:29 AM 55.4 °F 35.6 °F 47% 30.12 in 10.0 mi WNW 3.5 mph - N/A   Clear
12:49 AM 55.4 °F 35.6 °F 47% 30.13 in 10.0 mi WNW 6.9 mph - N/A   Clear
1:09 AM 55.4 °F 35.6 °F 47% 30.13 in 10.0 mi WNW 5.8 mph - N/A   Clear
1:29 AM 55.4 °F 35.6 °F 47% 30.13 in 10.0 mi WNW 5.8 mph - N/A   Clear
1:49 AM 55.4 °F 35.6 °F 47% 30.13 in 10.0 mi Calm Calm - N/A   Clear
2:09 AM 55.4 °F 35.6 °F 47% 30.12 in 10.0 mi NW 10.4 mph 18.4 mph N/A   Clear
2:29 AM 55.4 °F 35.6 °F 47% 30.13 in 10.0 mi NW 9.2 mph - N/A   Clear
2:49 AM 55.4 °F 35.6 °F 47% 30.13 in 10.0 mi NW 9.2 mph - N/A   Clear
3:09 AM 53.6 °F 35.6 °F 51% 30.12 in 10.0 mi NW 8.1 mph - N/A   Clear
3:30 AM 53.6 °F 33.8 °F 47% 30.12 in 10.0 mi NW 5.8 mph - N/A   Clear
3:50 AM 53.6 °F 33.8 °F 47% 30.12 in 10.0 mi NW 8.1 mph - N/A   Clear
4:10 AM 53.6 °F 33.8 °F 47% 30.13 in 10.0 mi NW 5.8 mph - N/A   Clear
4:30 AM 53.6 °F 35.6 °F 51% 30.14 in 10.0 mi Calm Calm - N/A   Clear
4:50 AM 53.6 °F 37.4 °F 54% 30.14 in 10.0 mi Calm Calm - N/A   Clear
5:10 AM 53.6 °F 37.4 °F 54% 30.15 in 10.0 mi West 3.5 mph - N/A   Clear
5:30 AM 51.8 °F 37.4 °F 58% 30.15 in 10.0 mi Calm Calm - N/A   Clear
5:50 AM 51.8 °F 37.4 °F 58% 30.15 in 10.0 mi WNW 4.6 mph - N/A   Clear
6:10 AM 51.8 °F 37.4 °F 58% 30.16 in 10.0 mi West 3.5 mph - N/A   Clear
6:30 AM 51.8 °F 37.4 °F 58% 30.17 in 10.0 mi Calm Calm - N/A   Clear
6:50 AM 53.6 °F 41.0 °F 62% 30.17 in 10.0 mi Calm Calm - N/A   Clear
7:10 AM 53.6 °F 37.4 °F 54% 30.17 in 10.0 mi WNW 6.9 mph 18.4 mph N/A   Clear
7:30 AM 55.4 °F 37.4 °F 51% 30.18 in 10.0 mi NW 11.5 mph 17.3 mph N/A   Clear
7:50 AM 55.4 °F 41.0 °F 58% 30.18 in 10.0 mi WNW 6.9 mph - N/A   Clear
8:10 AM 55.4 °F 39.2 °F 54% 30.18 in 10.0 mi WNW 10.4 mph 17.3 mph N/A   Clear
8:30 AM 55.4 °F 39.2 °F 54% 30.19 in 10.0 mi NW 6.9 mph 19.6 mph N/A   Clear
8:50 AM 55.4 °F 39.2 °F 54% 30.19 in 10.0 mi NW 11.5 mph - N/A   Clear
9:10 AM 55.4 °F 37.4 °F 51% 30.20 in 10.0 mi NW 8.1 mph 16.1 mph N/A   Clear
9:30 AM 57.2 °F 39.2 °F 51% 30.20 in 10.0 mi NW 11.5 mph - N/A   Clear
9:50 AM 59.0 °F 41.0 °F 51% 30.20 in 10.0 mi NW 6.9 mph - N/A   Clear
10:10 AM 59.0 °F 39.2 °F 48% 30.20 in 10.0 mi NW 8.1 mph - N/A   Clear
10:30 AM 59.0 °F 37.4 °F 45% 30.19 in 10.0 mi NW 6.9 mph - N/A   Clear
10:50 AM 60.8 °F 37.4 °F 42% 30.19 in 10.0 mi NW 10.4 mph - N/A   Clear
11:10 AM 60.8 °F 37.4 °F 42% 30.19 in 10.0 mi West 9.2 mph 18.4 mph N/A   Clear
11:30 AM 62.6 °F 32.0 °F 32% 30.18 in 10.0 mi NW 10.4 mph 18.4 mph N/A   Clear
11:51 AM 62.6 °F 33.8 °F 34% 30.18 in 10.0 mi NW 8.1 mph 19.6 mph N/A   Clear
12:11 PM 62.6 °F 33.8 °F 34% 30.17 in 10.0 mi WNW 8.1 mph 18.4 mph N/A   Clear
12:31 PM 62.6 °F 35.6 °F 37% 30.17 in 10.0 mi WNW 12.7 mph 17.3 mph N/A   Clear
12:51 PM 64.4 °F 35.6 °F 34% 30.17 in 10.0 mi West 10.4 mph 17.3 mph N/A   Clear
1:11 PM 64.4 °F 35.6 °F 34% 30.16 in 10.0 mi West 13.8 mph 19.6 mph N/A   Clear
1:31 PM 64.4 °F 35.6 °F 34% 30.16 in 10.0 mi West 12.7 mph 23.0 mph N/A   Clear
1:51 PM 64.4 °F 35.6 °F 34% 30.15 in 10.0 mi WNW 9.2 mph 19.6 mph N/A   Clear
2:11 PM 68.0 °F 35.6 °F 30% 30.14 in 10.0 mi West 12.7 mph 18.4 mph N/A   Clear
2:31 PM 68.0 °F 35.6 °F 30% 30.14 in 10.0 mi West 13.8 mph 19.6 mph N/A   Clear
2:51 PM 68.0 °F 33.8 °F 28% 30.13 in 10.0 mi WNW 9.2 mph 20.7 mph N/A   Clear
3:11 PM 69.8 °F 37.4 °F 31% 30.13 in 10.0 mi NW 10.4 mph 18.4 mph N/A   Clear
3:31 PM 69.8 °F 37.4 °F 31% 30.13 in 10.0 mi WNW 12.7 mph 17.3 mph N/A   Clear
3:51 PM 69.8 °F 35.6 °F 28% 30.13 in 10.0 mi WNW 13.8 mph 21.9 mph N/A   Clear
4:11 PM 69.8 °F 35.6 °F 28% 30.13 in 10.0 mi NNW 11.5 mph 20.7 mph N/A   Clear
4:31 PM 69.8 °F 37.4 °F 31% 30.13 in 10.0 mi WNW 10.4 mph 16.1 mph N/A   Clear
4:51 PM 69.8 °F 37.4 °F 31% 30.13 in 10.0 mi WNW 9.2 mph 16.1 mph N/A   Clear
5:11 PM 69.8 °F 37.4 °F 31% 30.13 in 10.0 mi NW 6.9 mph - N/A   Clear
5:31 PM 69.8 °F 37.4 °F 31% 30.13 in 10.0 mi NNW 9.2 mph - N/A   Clear
5:51 PM 69.8 °F 37.4 °F 31% 30.13 in 10.0 mi WNW 10.4 mph - N/A   Clear
6:11 PM 69.8 °F 37.4 °F 31% 30.13 in 10.0 mi Calm Calm - N/A   Clear
6:31 PM 69.8 °F 37.4 °F 31% 30.13 in 10.0 mi NW 4.6 mph - N/A   Clear
6:51 PM 69.8 °F 37.4 °F 31% 30.14 in 10.0 mi Calm Calm - N/A   Clear
7:11 PM 69.8 °F 41.0 °F 35% 30.14 in 10.0 mi Calm Calm - N/A   Clear
7:31 PM 68.0 °F 39.2 °F 35% 30.14 in 10.0 mi Calm Calm - N/A   Clear
7:51 PM 62.6 °F 42.8 °F 48% 30.15 in 10.0 mi Calm Calm - N/A   Clear
8:11 PM 60.8 °F 42.8 °F 52% 30.15 in 10.0 mi Calm Calm - N/A   Clear
8:30 PM 59.0 °F 44.6 °F 59% 30.16 in 10.0 mi Calm Calm - N/A   Clear
8:52 PM 55.4 °F 44.6 °F 67% 30.17 in 10.0 mi Calm Calm - N/A   Clear
9:12 PM 53.6 °F 44.6 °F 72% 30.17 in 10.0 mi Calm Calm - N/A   Clear
9:32 PM 53.6 °F 44.6 °F 72% 30.18 in 10.0 mi Calm Calm - N/A   Clear
9:45 PM 53.6 °F 46.4 °F 77% 30.18 in 10.0 mi Calm Calm - N/A   Clear
10:32 PM 50.0 °F 44.6 °F 82% 30.20 in 10.0 mi Calm Calm - N/A   Clear
10:52 PM 51.8 °F 44.6 °F 76% 30.20 in 10.0 mi Calm Calm - N/A   Clear
11:12 PM 50.0 °F 42.8 °F 76% 30.20 in 10.0 mi Calm Calm - N/A   Clear
11:32 PM 50.0 °F 44.6 °F 82% 30.21 in 10.0 mi Calm Calm - N/A   Clear
11:52 PM 50.0 °F 42.8 °F 76% 30.21 in 10.0 mi Calm Calm - N/A   Clear